Location: Newark
(33.6439°N, 114.9881°W)
Time: 08:37:31
(UTC+00:00)

Tiros 1 - Pass Details

Date: 29 July 2019
Orbit: 630 x 664 km, 48.4° (Epoch: 18 August)

Event Time Altitude Azimuth Distance (km) Brightness Sun altitude
Rises 20:50:15 0° 314° (NW) 2,994 10.6 69.3°
Reaches altitude 10° 20:53:17 10° 333° (NNW) 2,082 9.8 68.9°
Maximum altitude 20:56:36 18° 17° (NNE) 1,604 9.2 68.3°
Drops below altitude 10° 20:59:55 10° 60° (ENE) 2,079 9.7 67.8°
Sets 21:02:56 0° 80° (E) 2,988 10.4 67.3°
